SILO ALERT LOG
| Silo ID | Alert Type | Alert Message | Silo Type | Points | Depth (mm) | Strength | Temperature (°C) | Humidity (%) | Height (mm) | Volume (㎥) | Weight (t) | Flag | Time |
|---|---|---|---|---|---|---|---|---|---|---|---|---|---|
| WJWJR01 | Humidity | 습도센서 측정값이 80% 초과 | 평 | 81 | 4677 | 1366 | 20.1 | 83.6 | 2962 | 335.058 | 211.824 | 0 | 2026-06-08 07:26:43.000 |
| WJWJR05 | Humidity | 습도센서 측정값이 80% 초과 | 평 | 81 | 4810 | 2868 | 22.2 | 81.8 | 2919 | 330.135 | 208.711 | 0 | 2026-06-08 07:26:33.000 |
| WJWJR01 | Humidity | 습도센서 측정값이 80% 초과 | 평 | 82 | 4660 | 1423 | 20.1 | 83.9 | 2979 | 336.976 | 213.036 | 0 | 2026-06-08 06:26:42.000 |
| WJWJR05 | Humidity | 습도센서 측정값이 80% 초과 | 평 | 45 | 5556 | 2907 | 22.3 | 81.6 | 2173 | 245.786 | 155.386 | 0 | 2026-06-08 06:25:48.000 |
| WJWJR01 | Humidity | 습도센서 측정값이 80% 초과 | 평 | 80 | 4675 | 1329 | 20.3 | 83.6 | 2964 | 335.25 | 211.945 | 0 | 2026-06-08 05:26:41.000 |
| WJWJR05 | Humidity | 습도센서 측정값이 80% 초과 | 평 | 45 | 5615 | 2916 | 22.4 | 81.6 | 2114 | 239.131 | 151.179 | 0 | 2026-06-08 05:25:49.000 |
| WJWJR01 | Humidity | 습도센서 측정값이 80% 초과 | 평 | 83 | 4665 | 1373 | 20.5 | 83.7 | 2974 | 336.446 | 212.701 | 0 | 2026-06-08 04:26:46.000 |
| WJWJR05 | Humidity | 습도센서 측정값이 80% 초과 | 평 | 82 | 5339 | 2902 | 22.7 | 81.3 | 2390 | 270.306 | 170.888 | 0 | 2026-06-08 04:25:57.000 |
| WJWJR01 | Humidity | 습도센서 측정값이 80% 초과 | 평 | 81 | 4643 | 1316 | 20.7 | 83.2 | 2996 | 338.874 | 214.236 | 0 | 2026-06-08 03:26:43.000 |
| WJWJR05 | Humidity | 습도센서 측정값이 80% 초과 | 평 | 43 | 5586 | 2873 | 22.8 | 80.9 | 2143 | 242.372 | 153.228 | 0 | 2026-06-08 03:25:48.000 |
| WJWJR01 | Humidity | 습도센서 측정값이 80% 초과 | 평 | 82 | 4694 | 1364 | 21 | 82.8 | 2945 | 333.117 | 210.596 | 0 | 2026-06-08 02:26:45.000 |
| WJWJR05 | Humidity | 습도센서 측정값이 80% 초과 | 평 | 46 | 5596 | 2958 | 23.1 | 80.4 | 2133 | 241.243 | 152.514 | 0 | 2026-06-08 02:25:56.000 |
| WJWJR01 | Humidity | 습도센서 측정값이 80% 초과 | 평 | 80 | 4631 | 1342 | 21.3 | 82.1 | 3008 | 340.254 | 215.109 | 0 | 2026-06-08 01:26:46.000 |
| WJWJR01 | Humidity | 습도센서 측정값이 80% 초과 | 평 | 82 | 4683 | 1412 | 21.8 | 81.3 | 2956 | 334.325 | 211.36 | 0 | 2026-06-08 00:26:46.000 |
| WJWJR01 | Humidity | 습도센서 측정값이 80% 초과 | 평 | 82 | 4689 | 1317 | 22.3 | 80.4 | 2950 | 333.658 | 210.939 | 0 | 2026-06-07 23:26:50.000 |
| WJWJR05 | Humidity | 습도센서 측정값이 80% 초과 | 평 | 83 | 4750 | 2976 | 23.6 | 80.4 | 2979 | 336.965 | 213.029 | 0 | 2026-06-07 09:26:31.000 |
| WJWJR01 | Humidity | 습도센서 측정값이 80% 초과 | 평 | 82 | 4673 | 1353 | 20.9 | 83.2 | 2966 | 335.488 | 212.096 | 0 | 2026-06-07 08:26:46.000 |
| WJWJR05 | Humidity | 습도센서 측정값이 80% 초과 | 평 | 82 | 5249 | 2863 | 22.8 | 81.6 | 2480 | 280.551 | 177.364 | 0 | 2026-06-07 08:25:55.000 |
| WJWJR01 | Humidity | 습도센서 측정값이 80% 초과 | 평 | 82 | 4660 | 1355 | 20 | 84.6 | 2979 | 336.927 | 213.006 | 0 | 2026-06-07 07:26:43.000 |
| WJWJR05 | Humidity | 습도센서 측정값이 80% 초과 | 평 | 83 | 5364 | 2910 | 22.5 | 81.8 | 2365 | 267.485 | 169.104 | 0 | 2026-06-07 07:25:58.000 |
[첫 페이지] [48] [49] [50] [51] 52 [53] [54] [55] [56] [마지막 페이지]